Weather History for KONL - April, 2014

Change the Weather History Date:

Friday, April 11, 2014

  Actual Average Record
Temperature  
Mean Temperature 58 °F -  
Max Temperature 75 °F 61 °F 87 °F (1977)
Min Temperature 42 °F 34 °F 11 °F (1990)
Degree Days  
Heating Degree Days 6    
Growing Degree Days 8 (Base 50)    
Moisture  
Dew Point 30 °F    
Average Humidity 40    
Maximum Humidity 81    
Minimum Humidity 10    
Precipitation  
Precipitation 0.00 in - - ()
Sea Level Pressure  
Sea Level Pressure 29.90 in    
Wind  
Wind Speed 9 mph (SSW)    
Max Wind Speed 18 mph    
Max Gust Speed 25 mph    
Visibility 10 miles    
Events      
Averages and records for this station are not official NWS values.
T = Trace of Precipitation, MM = Missing Value Source: NWS Daily Summary

Daily Weather History Graph

Daily Weather History Graph

Search for Another Location

Airport or City:

Trip Planner

Search our weather history database for the weather conditions in past years. The results will help you decide how hot, cold, wet, or windy it might be!

Date:

Astronomy

Apr. 11, 2014 Rise Set
Actual Time 7:00 AM CDT 8:12 PM CDT
Civil Twilight 6:31 AM CDT 8:41 PM CDT
Nautical Twilight 5:56 AM CDT 9:15 PM CDT
Astronomical Twilight 5:20 AM CDT 9:52 PM CDT
Moon 4:50 PM CDT (4/11) 5:00 AM CDT (4/11)
Length of Visible Light 14h 09m
Length of Day
13h 11m
Waxing Gibbous, 87% of the Moon is Illuminated
Apr 11
Waxing Gibbous
Apr 15
Full
Apr 22
Last Quarter
Apr 29
New
May 6
First Quarter

Hourly Weather History & Observations

Time (CDT) Temp. Windchill Dew Point Humidity Pressure Visibility Wind Dir Wind Speed Gust Speed Precip Events Conditions
12:15 AM 52.0 °F - 28.2 °F 40% 29.97 in 10.0 mi South 6.9 mph - N/A   Overcast
12:35 AM 51.6 °F - 27.3 °F 39% 29.97 in 10.0 mi SSW 12.7 mph 17.3 mph N/A   Scattered Clouds
12:55 AM 51.8 °F - 33.1 °F 49% 29.97 in 10.0 mi SW 10.4 mph - N/A   Clear
1:15 AM 51.8 °F - 35.8 °F 54% 29.98 in 10.0 mi SW 11.5 mph - N/A   Clear
1:35 AM 51.4 °F - 37.9 °F 60% 29.98 in 10.0 mi SW 13.8 mph - N/A   Clear
1:55 AM 50.2 °F - 39.2 °F 66% 29.98 in 10.0 mi SW 10.4 mph - N/A   Clear
2:15 AM 47.7 °F - 38.5 °F 70% 29.98 in 10.0 mi SW 6.9 mph - N/A   Clear
2:35 AM 46.0 °F 42.5 °F 38.7 °F 75% 29.97 in 10.0 mi SW 6.9 mph - N/A   Clear
2:55 AM 44.6 °F 40.2 °F 38.3 °F 79% 29.97 in 10.0 mi SW 8.1 mph - N/A   Clear
3:15 AM 46.0 °F 42.5 °F 38.7 °F 75% 29.97 in 10.0 mi WSW 6.9 mph - N/A   Clear
3:35 AM 45.7 °F 42.7 °F 38.5 °F 76% 29.97 in 10.0 mi WSW 5.8 mph - N/A   Clear
3:55 AM 45.9 °F 41.7 °F 38.5 °F 75% 29.97 in 10.0 mi WSW 8.1 mph - N/A   Clear
4:15 AM 46.6 °F - 39.2 °F 75% 29.97 in 10.0 mi SW 9.2 mph - N/A   Clear
4:35 AM 46.6 °F - 38.7 °F 74% 29.97 in 10.0 mi SW 9.2 mph - N/A   Clear
4:55 AM 47.3 °F - 38.7 °F 72% 29.97 in 10.0 mi SW 9.2 mph - N/A   Clear
5:15 AM 47.5 °F - 38.5 °F 71% 29.97 in 10.0 mi SW 10.4 mph - N/A   Clear
5:35 AM 46.0 °F 41.4 °F 37.8 °F 73% 29.97 in 10.0 mi SW 9.2 mph - N/A   Clear
5:55 AM 45.1 °F 40.8 °F 37.4 °F 74% 29.97 in 10.0 mi SW 8.1 mph - N/A   Clear
6:15 AM 43.9 °F 39.9 °F 37.0 °F 77% 29.98 in 10.0 mi SW 6.9 mph - N/A   Clear
6:35 AM 43.9 °F 39.3 °F 37.4 °F 78% 29.98 in 10.0 mi SW 8.1 mph - N/A   Clear
6:55 AM 43.7 °F 38.1 °F 37.2 °F 78% 29.98 in 10.0 mi SW 10.4 mph - N/A   Clear
7:15 AM 42.1 °F 36.6 °F 36.5 °F 81% 29.99 in 10.0 mi SW 9.2 mph - N/A   Clear
7:35 AM 44.6 °F 39.2 °F 37.4 °F 76% 29.99 in 10.0 mi SW 10.4 mph - N/A   Clear
7:55 AM 45.3 °F 41.1 °F 37.4 °F 74% 29.99 in 10.0 mi SW 8.1 mph - N/A   Clear
8:15 AM 45.7 °F 43.4 °F 37.8 °F 74% 30.00 in 10.0 mi SW 4.6 mph - N/A   Clear
8:35 AM 48.0 °F - 38.5 °F 70% 30.00 in 10.0 mi WSW 6.9 mph - N/A   Clear
8:55 AM 50.4 °F - 39.2 °F 66% 30.00 in 10.0 mi SW 9.2 mph - N/A   Clear
9:15 AM 53.2 °F - 38.8 °F 58% 30.00 in 10.0 mi WSW 6.9 mph - N/A   Clear
9:35 AM 56.5 °F - 37.9 °F 50% 30.00 in 10.0 mi WSW 10.4 mph - N/A   Clear
9:55 AM 59.2 °F - 36.7 °F 43% 30.00 in 10.0 mi WSW 8.1 mph - N/A   Clear
10:15 AM 62.8 °F - 34.0 °F 34% 30.00 in 10.0 mi SW 9.2 mph - N/A   Clear
10:35 AM 65.7 °F - 30.2 °F 27% 30.00 in 10.0 mi WSW 12.7 mph 16.1 mph N/A   Clear
10:55 AM 66.9 °F - 27.3 °F 23% 29.99 in 10.0 mi WSW 12.7 mph - N/A   Clear
11:15 AM 68.0 °F - 26.4 °F 21% 29.99 in 10.0 mi SW 13.8 mph 18.4 mph N/A   Clear
11:35 AM 69.4 °F - 26.8 °F 20% 29.99 in 10.0 mi SSW 11.5 mph - N/A   Clear
11:55 AM 70.0 °F - 25.3 °F 19% 29.98 in 10.0 mi SSW 11.5 mph - N/A   Clear
12:15 PM 70.3 °F - 21.0 °F 15% 29.98 in 10.0 mi WSW 12.7 mph 16.1 mph N/A   Clear
12:35 PM 71.1 °F - 15.4 °F 12% 29.97 in 10.0 mi SW 10.4 mph 19.6 mph N/A   Clear
12:55 PM 71.2 °F - 15.3 °F 12% 29.96 in 10.0 mi Calm Calm - N/A   Clear
1:15 PM 71.6 °F - 15.8 °F 12% 29.96 in 10.0 mi SW 6.9 mph - N/A   Clear
1:35 PM 72.1 °F - 15.8 °F 12% 29.95 in 10.0 mi SSW 15.0 mph - N/A   Clear
1:55 PM 71.8 °F - 13.3 °F 11% 29.94 in 10.0 mi South 5.8 mph - N/A   Clear
2:15 PM 72.5 °F - 12.6 °F 10% 29.93 in 10.0 mi SW 3.5 mph - N/A   Clear
2:35 PM 73.4 °F - 14.0 °F 10% 29.92 in 10.0 mi Calm Calm - N/A   Clear
2:55 PM 72.9 °F - 16.3 °F 12% 29.91 in 10.0 mi SW 11.5 mph - N/A   Clear
3:15 PM 73.6 °F - 14.4 °F 10% 29.89 in 10.0 mi SSW 5.8 mph - N/A   Clear
3:35 PM 73.6 °F - 15.4 °F 11% 29.88 in 10.0 mi South 11.5 mph 16.1 mph N/A   Clear
3:55 PM 73.8 °F - 13.3 °F 10% 29.87 in 10.0 mi South 6.9 mph - N/A   Clear
4:15 PM 74.1 °F - 13.8 °F 10% 29.85 in 10.0 mi SSE 10.4 mph - N/A   Clear
4:35 PM 74.3 °F - 15.4 °F 11% 29.84 in 10.0 mi South 9.2 mph 17.3 mph N/A   Clear
4:55 PM 75.2 °F - 17.6 °F 11% 29.83 in 10.0 mi SSE 12.7 mph 21.9 mph N/A   Clear
5:15 PM 73.4 °F - 19.0 °F 13% 29.82 in 10.0 mi South 10.4 mph 13.8 mph N/A   Clear
5:35 PM 73.0 °F - 22.6 °F 15% 29.81 in 10.0 mi South 12.7 mph 18.4 mph N/A   Clear
5:55 PM 72.3 °F - 27.0 °F 18% 29.81 in 10.0 mi South 11.5 mph - N/A   Clear
6:15 PM 71.8 °F - 26.8 °F 19% 29.81 in 10.0 mi South 10.4 mph - N/A   Clear
6:35 PM 72.1 °F - 28.2 °F 20% 29.81 in 10.0 mi South 10.4 mph 16.1 mph N/A   Clear
6:55 PM 71.6 °F - 28.4 °F 20% 29.81 in 10.0 mi SSW 12.7 mph - N/A   Clear
7:15 PM 69.6 °F - 28.0 °F 21% 29.81 in 10.0 mi SSW 10.4 mph - N/A   Clear
7:35 PM 66.7 °F - 29.8 °F 25% 29.79 in 10.0 mi South 4.6 mph - N/A   Clear
7:55 PM 65.1 °F - 31.1 °F 28% 29.78 in 10.0 mi South 5.8 mph - N/A   Clear
8:15 PM 63.7 °F - 30.7 °F 29% 29.77 in 10.0 mi SSE 5.8 mph - N/A   Clear
8:35 PM 62.6 °F - 31.6 °F 31% 29.76 in 10.0 mi SSE 6.9 mph - N/A   Clear
8:55 PM 62.1 °F - 31.6 °F 32% 29.76 in 10.0 mi SE 6.9 mph - N/A   Clear
9:15 PM 61.3 °F - 32.2 °F 33% 29.76 in 10.0 mi SE 5.8 mph - N/A   Clear
9:35 PM 60.6 °F - 32.5 °F 35% 29.75 in 10.0 mi SE 6.9 mph - N/A   Clear
9:55 PM 61.9 °F - 32.0 °F 33% 29.74 in 10.0 mi SE 9.2 mph - N/A   Clear
10:15 PM 63.1 °F - 31.5 °F 30% 29.73 in 10.0 mi SSE 12.7 mph - N/A   Clear
10:35 PM 62.8 °F - 31.3 °F 31% 29.72 in 10.0 mi SSE 11.5 mph - N/A   Clear
10:55 PM 63.5 °F - 31.1 °F 30% 29.71 in 10.0 mi SSE 13.8 mph - N/A   Clear
11:15 PM 63.7 °F - 30.7 °F 29% 29.69 in 10.0 mi SSE 16.1 mph 21.9 mph N/A   Clear
11:35 PM 63.7 °F - 30.6 °F 29% 29.69 in 10.0 mi SSE 15.0 mph - N/A   Clear
11:55 PM 64.4 °F - 30.2 °F 28% 29.67 in 10.0 mi South 18.4 mph 25.3 mph N/A   Clear